This demonstration page uses our WeatherBlox Daily Observations layout. Learn more.

38.88101, -77.10428

Hourly Observations for June 28, 2017

Temp ( °F °C ) Dew Point ( °F °C ) Humidity (%) Winds ( mph kmh ) Pressure ( in mb ) Visibility ( mi km ) Precip ( " mm )
12:52 am 00:52 Mostly Clear 67 19.4 48 8.9 51 51 NNW 7 11 30.09 1019 10 16.09344 0 0
1:52 am 01:52 Partly Cloudy 67 19.4 48 8.9 51 51 Calm 30.09 1019 10 16.09344 0 0
2:52 am 02:52 Partly Cloudy 65 18.3 50 10 59 59 NW 5 7 30.09 1019 10 16.09344 0 0
3:52 am 03:52 Partly Cloudy 66 18.9 49 9.4 54 54 NNW 3 6 30.12 1020 10 16.09344 0 0
4:52 am 04:52 Mostly Clear 63 17.2 50 10 63 63 NNW 5 7 30.12 1020 10 16.09344 0 0
5:52 am 05:52 Mostly Sunny 62 16.7 51 10.6 67 67 SW 3 6 30.12 1020 10 16.09344 0 0
6:52 am 06:52 Mostly Sunny 63 17.2 51 10.6 65 65 WSW 5 7 30.15 1021 10 16.09344 0 0
7:52 am 07:52 Mostly Sunny 68 20 51 10.6 55 55 W 5 7 30.18 1022 10 16.09344 0 0
8:52 am 08:52 Sunny 70 21.1 52 11.1 53 53 ESE 3 6 30.18 1022 10 16.09344 0 0
9:52 am 09:52 Sunny 73 22.8 51 10.6 46 46 ENE 3 6 30.18 1022 10 16.09344 0 0
10:52 am 10:52 Mostly Sunny 76 24.4 47 8.3 36 36 N 7 11 30.18 1022 10 16.09344 0 0
11:52 am 11:52 Mostly Sunny 77 25 43 6.1 30 30 N 12 19 30.18 1022 10 16.09344 0 0
12:52 pm 12:52 Partly Cloudy 79 26.1 48 8.9 34 34 NNE 9 15 30.18 1022 10 16.09344 0 0
1:52 pm 13:52 Partly Cloudy 80 26.7 48 8.9 33 33 NNE 8 13 30.15 1021 10 16.09344 0 0
2:52 pm 14:52 Partly Cloudy 81 27.2 47 8.3 30 30 N 5 7 30.15 1021 10 16.09344 0 0
3:52 pm 15:52 Partly Cloudy 82 27.8 46 7.8 28 28 SW 9 15 30.15 1021 10 16.09344 0 0
4:52 pm 16:52 Mostly Cloudy 82 27.8 47 8.3 29 29 WNW 5 7 30.12 1020 10 16.09344 0 0
5:52 pm 17:52 Mostly Cloudy 81 27.2 51 10.6 35 35 S 7 11 30.12 1020 10 16.09344 0 0
6:52 pm 18:52 Mostly Cloudy 79 26.1 53 11.7 41 41 S 12 19 30.12 1020 10 16.09344 0 0
7:52 pm 19:52 Mostly Cloudy 77 25 56 13.3 48 48 S 13 20 30.12 1020 10 16.09344 0 0
8:52 pm 20:52 Mostly Cloudy 76 24.4 55 12.8 48 48 SSW 13 20 30.12 1020 10 16.09344 0 0
9:52 pm 21:52 Mostly Cloudy 74 23.3 57 13.9 56 56 SSE 12 19 30.15 1021 10 16.09344 0 0
10:52 pm 22:52 Partly Cloudy 73 22.8 59 15 62 62 S 16 26 30.15 1021 10 16.09344 0 0
11:52 pm 23:52 Partly Cloudy 71 21.7 59 15 66 66 SSW 12 19 30.15 1021 10 16.09344 0 0

Powered by AerisWeather